RH
96 96 72 56 49 22 14 12 13 14 16 20 33 44 48 51 58 63 62 58 67 76 76 82 86 84 74 83 77 56 37 27 27 28 30 30 30 27 25 26 26 27 27
95 96 96 73 50 49 26 16 14 14 17 18 24 40 36 34 41 45 56 58 69 72 75 78 78 93 87 75 84 76 50 37 31 31 33 34 33 33 32 31 29 28 28
97 97 93 96 86 56 43 26 19 18 17 18 22 57 27 25 32 35 43 66 85 86 78 78 80 93 94 84 83 88 70 67 48 35 36 38 37 37 36 32 31 30 28
97 94 96 97 85 90 59 45 30 21 20 22 32 44 43 40 41 30 41 66 71 76 81 79 76 90 94 94 88 89 88 83 69 43 38 41 41 39 35 35 33 30 28
97 95 91 97 97 93 78 68 51 33 36 38 36 39 45 45 35 35 50 67 67 90 83 80 79 87 87 94 93 97 89 98 88 57 42 43 42 41 39 35 30 30 31
92 96 98 98 96 94 91 83 57 51 49 48 48 51 50 48 49 55 70 73 74 90 83 78 82 92 89 75 79 93 90 90 83 50 44 44 45 42 38 33 31 30 31
53 88 94 96 96 97 100 99 80 69 59 56 52 54 54 56 60 70 85 76 78 92 84 84 87 91 95 97 100 92 87 88 65 46 46 45 41 37 33 34 37 33 27
12 38 58 95 96 97 100 82 90 94 87 65 65 61 67 85 88 95 80 92 92 84 90 93 91 84 78 86 87 89 72 54 49 48 47 42 37 35 39 39 33 28 31
13 10 12 68 84 90 98 98 97 96 97 97 90 94 89 93 95 90 96 97 99 98 98 98 96 92 93 90 97 69 50 50 51 50 45 37 39 41 39 32 32 35 34
14 14 12 21 40 57 83 93 97 98 98 97 97 97 100 98 98 96 98 95 96 97 97 96 98 94 83 87 88 58 54 55 53 46 40 43 44 37 34 38 38 41 62
13 13 13 12 27 24 32 70 86 96 95 96 97 91 98 97 96 95 96 92 87 85 82 83 94 95 85 87 68 55 56 55 44 42 45 42 37 39 40 42 63 81 82
12 12 12 12 11 11 14 35 40 69 69 73 88 93 94 72 92 96 99 96 82 78 80 78 72 69 70 61 55 61 56 42 45 46 39 40 42 42 62 85 87 81 79
12 13 12 12 11 10 10 12 14 17 20 33 44 82 86 50 98 94 94 97 93 100 100 89 86 63 46 57 65 52 44 46 43 40 43 43 57 89 90 87 89 84 76
19 20 13 13 13 11 10 11 12 12 14 13 23 36 71 56 98 98 87 89 85 94 97 88 64 57 69 61 50 47 46 40 43 44 53 88 93 90 91 91 84 77 74
24 24 26 21 16 14 13 13 13 15 18 21 33 41 50 62 82 92 82 87 76 86 71 66 65 63 54 49 47 42 42 45 49 85 98 95 93 95 91 86 83 78 72
24 24 27 31 27 22 18 17 18 17 19 30 32 45 56 56 58 63 65 61 64 73 68 59 56 53 50 45 41 44 48 78 99 99 96 97 97 96 92 85 77 67 58
25 28 38 44 43 34 33 29 29 23 21 26 38 49 53 56 64 72 74 77 69 52 52 55 52 48 42 45 49 74 100 100 100 100 100 98 95 90 83 72 63 59 54
31 26 35 57 54 46 46 56 50 39 35 34 38 48 63 66 61 56 48 44 49 55 54 50 43 47 52 78 100 100 100 100 100 100 97 95 93 82 70 65 59 51 44
81 37 30 40 65 69 63 66 71 72 67 61 58 55 56 56 54 53 55 55 54 48 45 50 57 92 100 100 100 100 100 100 99 99 96 87 78 75 69 62 51 42 31
100 98 53 38 37 52 67 72 72 76 84 83 74 69 67 66 62 54 44 46 51 58 83 100 100 100 100 100 100 100 100 100 96 92 84 81 76 71 62 46 34 27 21
99 100 99 95 58 47 43 45 52 54 56 57 56 54 48 41 40 46 56 74 100 100 100 100 100 100 100 100 100 99 98 95 91 85 84 76 70 58 39 29 26 20 14
98 99 99 100 100 100 87 60 52 50 47 47 48 51 57 66 75 92 100 100 100 100 100 100 100 100 100 100 99 98 95 90 91 85 73 62 45 31 28 26 18 13 10
97 100 100 98 98 99 100 100 100 100 98 100 100 100 100 100 100 100 100 100 100 100 100 100 100 100 100 98 96 94 94 94 82 67 53 40 32 28 28 17 12 10 8
91 100 100 100 100 100 100 99 100 99 99 99 99 100 100 100 100 100 100 100 100 100 100 100 100 100 99 98 98 96 90 76 62 47 42 40 32 31 19 11 9 10 27
79 92 100 100 100 100 99 100 100 100 100 100 100 100 100 100 100 100 100 100 100 100 100 100 100 100 100 99 95 85 72 62 49 44 42 36 31 19 10 9 12 47 60
90 87 93 100 100 100 100 100 100 100 100 100 100 100 100 100 100 100 100 100 100 100 100 100 100 100 100 95 86 77 69 58 52 44 34 30 19 10 8 12 54 62 54
Wind_Speed
52 48 50 49 48 51 50 49 47 46 45 44 44 43 42 41 39 37 37 35 34 35 33 33 33 35 34 32 30 31 33 34 34 35 36 38 38 39 40 41 42 43 45
57 48 47 51 50 50 50 49 49 47 47 47 46 44 44 42 42 41 40 39 39 39 37 38 39 39 38 37 37 37 36 37 38 39 39 40 43 43 43 44 45 47 49
55 50 52 49 58 54 50 49 48 48 48 51 48 48 45 45 45 45 43 43 43 40 40 42 42 43 43 43 44 41 41 41 43 42 42 43 45 46 47 48 49 51 53
59 62 46 64 54 60 53 50 50 51 53 53 48 52 51 49 47 46 46 45 45 42 44 46 45 49 49 46 46 44 45 47 46 47 46 47 48 50 51 51 52 54 57
54 60 64 38 54 57 58 62 60 58 56 52 55 57 53 50 47 47 49 49 49 49 47 48 49 49 46 43 45 49 47 47 48 49 49 50 51 53 54 56 56 57 60
63 66 40 58 58 58 58 61 59 59 58 55 57 53 52 52 50 52 54 55 55 52 50 48 49 43 46 43 49 49 48 52 51 50 51 53 54 55 56 59 62 63 64
52 56 53 40 67 50 56 59 63 60 60 58 54 55 57 54 56 56 53 52 54 54 51 53 54 49 43 44 48 51 53 53 54 53 54 56 57 58 60 63 65 65 65
47 50 56 61 50 51 61 64 64 62 61 58 55 60 59 60 58 54 52 57 56 56 55 56 53 47 47 49 52 55 53 53 54 55 57 57 59 62 64 65 65 65 66
40 43 44 54 46 53 57 61 68 64 56 60 65 60 56 57 58 56 52 52 55 49 46 59 53 53 53 51 51 52 54 55 56 57 58 59 62 64 64 65 67 69 68
41 41 39 41 46 46 50 46 64 61 60 55 55 53 56 59 63 64 63 40 40 44 46 47 49 53 54 55 53 55 56 57 58 58 61 62 63 64 66 67 69 71 72
43 42 39 38 43 44 46 47 42 51 42 49 46 57 62 55 41 38 39 40 41 42 45 50 54 53 52 55 57 58 58 59 60 61 62 62 64 67 67 69 71 72 71
46 46 44 40 39 40 41 40 42 48 40 39 44 46 40 41 40 47 42 47 44 49 51 54 55 55 58 60 58 58 59 61 61 62 64 65 67 69 70 70 69 70 72
48 47 48 45 43 44 43 43 43 45 43 44 47 43 49 45 51 52 52 45 55 53 57 58 57 60 59 57 57 59 61 61 62 64 66 68 69 69 67 67 69 72 74
36 42 44 45 43 46 46 46 47 47 48 48 49 49 52 56 49 50 61 57 60 61 61 61 59 56 55 58 60 60 61 63 64 66 68 68 66 66 68 70 72 73 74
27 33 37 39 42 43 46 48 50 52 52 53 55 55 55 56 57 59 57 62 64 62 59 56 55 57 58 59 60 62 63 65 67 67 64 64 66 68 70 71 71 72 73
26 27 32 36 37 37 39 44 50 54 57 54 56 57 57 59 58 56 57 55 54 54 55 56 56 57 58 60 61 63 65 66 64 62 64 66 68 68 68 69 70 74 76
26 27 30 33 35 37 36 37 39 46 52 53 51 52 55 56 55 52 53 52 54 54 54 55 56 58 60 61 63 64 62 60 61 64 66 65 66 67 68 70 74 75 79
25 29 31 32 33 35 36 32 32 35 37 43 49 47 46 47 48 49 50 51 53 53 54 56 58 59 61 62 59 58 59 61 64 64 63 64 65 67 71 73 74 76 79
32 30 32 34 35 36 37 38 37 36 35 36 38 41 43 45 47 49 51 52 53 54 56 57 59 59 56 56 56 58 62 63 61 62 63 66 67 69 71 75 78 81 86
37 38 35 35 37 40 40 40 40 42 43 43 44 46 47 48 50 51 52 53 55 55 56 56 53 53 54 55 59 61 60 59 60 62 64 66 67 70 75 79 84 88 91
36 38 41 40 40 41 42 43 44 45 46 47 48 49 50 51 52 53 53 53 53 52 50 50 51 52 56 59 59 58 59 60 61 63 64 66 70 75 80 85 89 93 96
43 39 38 38 43 46 47 46 46 47 47 48 49 49 50 51 52 52 50 47 47 48 49 50 52 55 56 57 58 58 59 60 60 62 65 70 75 79 85 88 93 93 85
43 41 41 41 41 41 41 43 46 48 50 50 50 49 48 48 46 43 42 45 46 47 48 50 52 54 56 56 56 57 57 58 60 65 70 74 79 85 88 93 90 79 65
44 44 45 44 44 43 42 43 43 43 42 41 39 39 40 39 36 37 43 44 45 46 48 51 54 55 55 55 54 55 56 59 64 69 73 77 83 87 91 86 70 56 46
44 44 43 43 45 45 43 43 43 42 39 36 36 36 34 32 36 42 43 44 46 48 51 53 53 54 53 51 53 56 60 64 68 72 76 81 85 88 81 62 50 42 44
50 45 44 42 39 41 41 39 39 38 35 35 35 33 32 35 41 44 45 45 46 49 51 52 53 52 50 51 55 59 63 67 71 75 78 82 85 77 57 46 40 43 43
Wind_Direction
212 212 211 211 215 219 219 218 219 221 225 226 227 233 239 244 249 255 265 268 271 273 280 285 290 292 289 290 279 278 280 281 284 286 288 290 292 293 294 295 296 297 297
213 218 213 217 217 218 218 219 220 221 224 230 231 235 243 246 250 252 260 263 270 277 281 287 287 287 285 288 284 281 282 284 285 286 288 290 293 295 296 295 295 297 298
223 221 223 218 218 217 216 219 222 223 225 229 231 239 241 245 248 252 257 263 272 272 278 280 285 285 281 282 285 280 282 286 285 286 289 292 293 294 295 295 296 296 297
223 226 223 218 224 213 215 216 222 224 226 228 230 237 240 245 252 252 255 261 261 265 272 275 279 289 284 274 281 278 283 287 289 292 292 293 294 296 296 296 297 297 296
209 228 229 227 217 212 213 217 221 222 225 227 233 236 239 243 247 250 255 258 258 269 268 271 278 279 287 279 277 277 281 287 291 294 293 294 296 297 298 298 297 294 295
245 228 224 223 230 219 215 219 222 224 228 229 234 237 239 240 242 245 251 260 263 270 271 272 278 281 279 277 275 275 280 285 291 291 293 294 296 297 297 296 295 295 297
249 251 229 219 227 218 221 223 226 229 230 231 232 235 238 241 247 257 262 265 265 268 270 275 276 279 271 271 275 277 280 287 291 291 293 295 296 295 293 292 293 295 296
251 254 260 247 234 229 224 234 231 229 232 231 232 236 241 248 249 255 257 264 264 266 268 273 276 270 269 269 273 275 284 289 290 292 293 294 294 291 291 293 295 294 294
251 252 253 262 266 265 231 226 229 226 228 233 236 241 250 253 253 254 260 260 257 261 267 267 266 268 266 277 284 286 288 288 290 292 293 292 291 291 294 295 294 295 295
253 253 251 252 263 265 267 262 228 222 231 238 244 246 254 255 253 255 254 257 260 257 266 271 271 270 270 278 286 289 290 291 292 293 291 291 293 294 294 295 295 296 295
257 258 256 254 255 260 268 268 264 243 244 235 245 246 246 255 266 274 264 270 268 269 267 267 274 276 280 283 288 290 291 292 292 290 291 293 293 294 295 296 295 295 295
258 256 256 254 250 254 254 258 259 263 261 265 267 269 268 264 268 271 270 268 269 270 271 271 273 278 281 285 289 291 291 290 290 292 293 294 295 296 296 295 295 297 297
260 258 257 254 250 250 249 248 249 253 251 249 251 247 261 265 263 261 266 266 268 274 274 274 279 283 285 287 289 289 288 290 291 292 295 296 296 296 296 297 297 297 298
263 262 258 257 253 249 248 247 247 246 246 247 244 245 242 248 258 261 263 267 267 270 273 279 282 284 285 287 287 287 289 291 293 294 295 295 295 296 297 297 298 298 299
259 259 260 258 254 249 250 249 247 248 247 247 248 249 248 251 255 258 261 262 269 273 278 279 281 283 283 284 286 288 290 292 293 294 294 295 297 297 297 298 299 301 302
262 256 252 256 256 252 250 249 247 245 244 246 247 248 251 254 258 263 264 268 271 273 276 279 278 279 282 285 288 290 291 292 293 294 296 296 295 297 299 302 303 302 302
262 256 254 253 255 256 257 256 256 254 251 251 253 254 255 257 260 263 265 269 272 274 273 275 278 282 284 286 287 289 290 291 294 295 295 296 298 302 303 302 303 302 303
261 257 253 252 254 256 255 252 256 256 255 253 253 254 256 258 260 263 265 266 266 271 275 277 280 282 284 286 287 289 291 293 293 294 296 301 302 302 302 303 304 304 303
265 256 253 251 251 251 254 255 249 247 248 248 249 250 250 252 255 258 262 266 271 272 275 279 281 283 284 286 288 290 291 291 293 298 301 301 303 304 303 303 304 304 306
263 262 257 254 250 249 248 249 253 254 253 253 253 253 256 259 262 265 267 268 271 275 277 278 280 282 285 287 287 288 290 294 298 299 301 302 303 304 305 306 307 309 311
267 260 260 257 254 252 251 250 250 250 251 253 253 254 255 258 262 265 268 271 272 271 274 277 280 283 283 284 288 293 296 299 300 302 303 304 305 307 310 311 313 314 313
270 270 267 259 256 256 255 252 250 251 252 253 255 258 260 262 263 264 265 268 270 272 275 278 279 280 284 289 294 297 298 300 301 303 305 307 310 313 314 316 316 314 311
267 266 265 266 265 260 255 252 253 252 252 254 254 256 259 261 264 267 268 268 269 272 275 277 280 285 290 293 295 296 299 302 304 307 310 311 315 317 318 317 314 311 310
265 266 263 263 263 261 260 259 258 258 257 258 260 262 264 264 266 264 264 268 272 275 278 281 284 288 292 294 296 298 302 306 309 311 314 317 318 318 317 315 312 311 311
267 265 267 266 264 261 260 259 259 259 259 258 258 260 262 266 265 264 268 273 274 276 278 282 287 292 294 296 300 303 306 309 311 314 317 318 318 318 315 313 312 311 313
265 265 264 265 266 263 260 260 262 261 256 253 257 262 264 265 263 266 271 272 275 278 281 285 290 293 296 300 303 306 307 310 312 317 318 318 318 316 313 312 312 314 314